Time,TemperatureF,DewpointF,PressureIn,WindDirection,WindDirectionDegrees,WindSpeedMPH,WindSpeedGustMPH,Humidity,HourlyPrecipIn,Conditions,Clouds,dailyrainin,SoftwareType,DateUTC
2013-06-20 00:00:00,81.8,76.8,30.01,ESE,119,9.6,15.0,85,0.00,CLR,,0.00,WeatherDisplay:10.37,2013-06-20 05:00:00,
2013-06-20 00:05:00,81.9,77.3,30.00,SE,145,8.7,13.8,86,0.00,CLR,,0.00,WeatherDisplay:10.37,2013-06-20 05:05:00,
2013-06-20 00:10:00,81.9,77.3,30.00,SE,130,11.0,18.4,86,0.00,CLR,,0.00,WeatherDisplay:10.37,2013-06-20 05:10:00,
2013-06-20 00:15:00,81.8,77.5,29.99,SE,137,9.6,16.1,87,0.00,CLR,,0.00,WeatherDisplay:10.37,2013-06-20 05:15:00,
2013-06-20 00:20:00,81.8,77.9,29.99,SE,124,10.6,17.3,88,0.00,CLR,,0.00,WeatherDisplay:10.37,2013-06-20 05:20:00,
2013-06-20 00:25:00,81.7,77.8,30.00,SSE,148,11.3,18.8,88,0.00,CLR,,0.00,WeatherDisplay:10.37,2013-06-20 05:25:00,
2013-06-20 00:30:00,81.6,77.7,30.00,SE,127,9.8,16.1,88,0.00,CLR,,0.00,WeatherDisplay:10.37,2013-06-20 05:30:00,
2013-06-20 00:35:00,81.6,77.7,29.99,SE,130,11.5,16.1,88,0.00,CLR,,0.00,WeatherDisplay:10.37,2013-06-20 05:35:00,
2013-06-20 00:40:00,81.4,77.5,29.99,SSE,161,11.5,17.3,88,0.00,CLR,,0.00,WeatherDisplay:10.37,2013-06-20 05:40:00,
2013-06-20 00:45:00,81.4,77.5,29.99,SSE,161,12.2,17.2,88,0.00,CLR,,0.00,WeatherDisplay:10.37,2013-06-20 05:45:00,
2013-06-20 00:50:00,81.4,77.5,29.99,SE,141,10.3,16.1,88,0.00,CLR,,0.00,WeatherDisplay:10.37,2013-06-20 05:50:00,
2013-06-20 00:55:00,81.5,77.6,29.99,SE,133,9.6,15.3,88,0.00,CLR,,0.00,WeatherDisplay:10.37,2013-06-20 05:55:00,
2013-06-20 01:00:00,81.4,77.8,29.99,SSE,168,11.0,15.0,89,0.00,CLR,,0.00,WeatherDisplay:10.37,2013-06-20 06:00:00,
2013-06-20 01:05:00,81.4,77.8,29.99,SSE,168,9.0,15.0,89,0.00,CLR,,0.00,WeatherDisplay:10.37,2013-06-20 06:05:00,
2013-06-20 01:10:00,81.3,77.7,29.99,SE,143,8.1,14.4,89,0.00,CLR,,0.00,WeatherDisplay:10.37,2013-06-20 06:10:00,
2013-06-20 01:15:00,81.5,77.9,29.99,SSW,199,7.1,12.7,89,0.00,CLR,,0.00,WeatherDisplay:10.37,2013-06-20 06:15:00,
2013-06-20 01:20:00,81.5,77.9,29.99,SSE,161,9.4,13.8,89,0.00,CLR,,0.00,WeatherDisplay:10.37,2013-06-20 06:20:00,
2013-06-20 01:25:00,81.3,77.7,29.99,South,169,8.4,12.7,89,0.00,CLR,,0.00,WeatherDisplay:10.37,2013-06-20 06:25:00,
2013-06-20 01:30:00,81.5,77.9,29.99,SE,145,9.5,16.1,89,0.00,CLR,,0.00,WeatherDisplay:10.37,2013-06-20 06:30:00,
2013-06-20 01:35:00,81.5,78.3,29.99,South,174,7.3,16.1,90,0.00,CLR,,0.00,WeatherDisplay:10.37,2013-06-20 06:35:00,
2013-06-20 01:40:00,81.5,78.3,29.99,SSE,167,9.8,15.0,90,0.00,CLR,,0.00,WeatherDisplay:10.37,2013-06-20 06:40:00,
2013-06-20 01:45:00,81.4,78.2,29.99,South,169,8.5,13.8,90,0.00,CLR,,0.00,WeatherDisplay:10.37,2013-06-20 06:45:00,
2013-06-20 01:50:00,81.3,78.1,29.99,SSE,161,11.4,16.3,90,0.00,CLR,,0.00,WeatherDisplay:10.37,2013-06-20 06:50:00,
2013-06-20 01:55:00,81.3,78.1,29.99,SSE,165,9.5,15.0,90,0.00,CLR,,0.00,WeatherDisplay:10.37,2013-06-20 06:55:00,
2013-06-20 02:00:00,81.2,78.0,29.98,SE,137,10.4,14.1,90,0.00,CLR,,0.00,WeatherDisplay:10.37,2013-06-20 07:00:00,
2013-06-20 02:05:00,81.3,78.1,29.98,ESE,110,12.2,18.4,90,0.00,CLR,,0.00,WeatherDisplay:10.37,2013-06-20 07:05:00,
2013-06-20 02:10:00,81.3,78.4,29.98,SSE,168,10.4,15.0,91,0.00,CLR,,0.00,WeatherDisplay:10.37,2013-06-20 07:10:00,
2013-06-20 02:15:00,81.3,78.4,29.98,ESE,110,9.1,16.1,91,0.00,CLR,,0.00,WeatherDisplay:10.37,2013-06-20 07:15:00,
2013-06-20 02:20:00,81.3,78.4,29.98,SSE,150,10.5,16.1,91,0.00,CLR,,0.00,WeatherDisplay:10.37,2013-06-20 07:20:00,
2013-06-20 02:25:00,81.2,78.3,29.98,SSE,147,9.0,17.3,91,0.00,CLR,,0.00,WeatherDisplay:10.37,2013-06-20 07:25:00,
2013-06-20 02:30:00,81.1,78.2,29.97,SSE,152,12.7,18.4,91,0.00,CLR,,0.00,WeatherDisplay:10.37,2013-06-20 07:30:00,
2013-06-20 02:35:00,81.1,78.2,29.97,SSE,147,9.2,16.1,91,0.00,CLR,,0.00,WeatherDisplay:10.37,2013-06-20 07:35:00,
2013-06-20 02:40:00,81.1,78.2,29.97,South,191,10.3,15.0,91,0.00,CLR,,0.00,WeatherDisplay:10.37,2013-06-20 07:40:00,
2013-06-20 02:45:00,81.1,78.2,29.97,SSE,150,9.0,16.1,91,0.00,CLR,,0.00,WeatherDisplay:10.37,2013-06-20 07:45:00,
2013-06-20 02:50:00,81.2,78.7,29.97,SSE,155,9.6,13.8,92,0.00,CLR,,0.00,WeatherDisplay:10.37,2013-06-20 07:50:00,
2013-06-20 02:55:00,81.1,78.6,29.97,SSE,152,8.8,12.7,92,0.00,CLR,,0.00,WeatherDisplay:10.37,2013-06-20 07:55:00,
2013-06-20 03:00:00,81.1,78.6,29.97,SSE,147,8.8,15.0,92,0.00,CLR,,0.00,WeatherDisplay:10.37,2013-06-20 08:00:00,
2013-06-20 03:05:00,81.1,78.6,29.97,SE,145,7.4,12.7,92,0.00,CLR,,0.00,WeatherDisplay:10.37,2013-06-20 08:05:00,
2013-06-20 03:10:00,81.1,78.6,29.97,SE,144,9.0,13.8,92,0.00,CLR,,0.00,WeatherDisplay:10.37,2013-06-20 08:10:00,
2013-06-20 03:15:00,81.0,78.5,29.97,SSE,151,9.4,13.8,92,0.00,CLR,,0.00,WeatherDisplay:10.37,2013-06-20 08:15:00,
2013-06-20 03:20:00,81.2,78.7,29.97,SSE,160,7.9,12.7,92,0.00,CLR,,0.00,WeatherDisplay:10.37,2013-06-20 08:20:00,
2013-06-20 03:25:00,81.2,78.7,29.97,South,169,10.8,16.1,92,0.00,CLR,,0.00,WeatherDisplay:10.37,2013-06-20 08:25:00,
2013-06-20 03:30:00,81.1,78.2,29.97,SSE,165,9.0,13.8,91,0.00,CLR,,0.00,WeatherDisplay:10.37,2013-06-20 08:30:00,
2013-06-20 03:35:00,81.1,78.2,29.97,SSE,154,9.9,15.0,91,0.00,CLR,,0.00,WeatherDisplay:10.37,2013-06-20 08:35:00,
2013-06-20 03:40:00,81.1,78.2,29.97,SE,127,10.5,15.8,91,0.00,CLR,,0.00,WeatherDisplay:10.37,2013-06-20 08:40:00,
2013-06-20 03:45:00,81.2,78.3,29.97,SSE,151,9.1,12.7,91,0.00,CLR,,0.00,WeatherDisplay:10.37,2013-06-20 08:45:00,
2013-06-20 03:50:00,81.2,78.3,29.97,SE,143,7.5,13.8,91,0.00,CLR,,0.00,WeatherDisplay:10.37,2013-06-20 08:50:00,
2013-06-20 03:55:00,81.2,78.3,29.97,SSE,158,8.5,11.5,91,0.00,CLR,,0.00,WeatherDisplay:10.37,2013-06-20 08:55:00,
2013-06-20 04:00:00,81.1,78.2,29.97,SSE,160,9.5,12.7,91,0.00,CLR,,0.00,WeatherDisplay:10.37,2013-06-20 09:00:00,
2013-06-20 04:05:00,81.1,78.2,29.97,SSE,152,9.7,12.8,91,0.00,CLR,,0.00,WeatherDisplay:10.37,2013-06-20 09:05:00,
2013-06-20 04:10:00,81.1,78.2,29.97,South,169,7.1,10.4,91,0.00,CLR,,0.00,WeatherDisplay:10.37,2013-06-20 09:10:00,
2013-06-20 04:15:00,81.1,78.2,29.96,SE,145,8.9,12.7,91,0.00,CLR,,0.00,WeatherDisplay:10.37,2013-06-20 09:15:00,
2013-06-20 04:20:00,81.1,78.2,29.96,ESE,121,10.0,12.7,91,0.00,CLR,,0.00,WeatherDisplay:10.37,2013-06-20 09:20:00,
2013-06-20 04:25:00,81.2,78.3,29.96,South,171,8.7,16.1,91,0.00,CLR,,0.00,WeatherDisplay:10.37,2013-06-20 09:25:00,
2013-06-20 04:30:00,81.2,78.3,29.96,SE,143,10.4,14.4,91,0.00,CLR,,0.00,WeatherDisplay:10.37,2013-06-20 09:30:00,
2013-06-20 04:35:00,81.1,78.2,29.96,SSE,161,9.1,16.6,91,0.00,CLR,,0.00,WeatherDisplay:10.37,2013-06-20 09:35:00,
2013-06-20 04:41:00,81.1,78.2,29.96,SE,133,9.1,15.0,91,0.00,CLR,,0.00,WeatherDisplay:10.37,2013-06-20 09:41:00,
2013-06-20 04:46:00,81.1,78.2,29.96,SSE,155,9.3,15.0,91,0.00,CLR,,0.00,WeatherDisplay:10.37,2013-06-20 09:46:00,
2013-06-20 04:51:00,81.2,78.3,29.96,SE,145,8.6,15.0,91,0.00,CLR,,0.00,WeatherDisplay:10.37,2013-06-20 09:51:00,
2013-06-20 04:56:00,81.1,78.2,29.96,SSE,157,10.3,13.8,91,0.00,CLR,,0.00,WeatherDisplay:10.37,2013-06-20 09:56:00,
2013-06-20 05:01:00,81.1,78.2,29.96,SSE,160,9.3,14.5,91,0.00,CLR,,0.00,WeatherDisplay:10.37,2013-06-20 10:01:00,
2013-06-20 05:06:00,81.1,78.6,29.95,SSE,148,11.2,16.8,92,0.00,CLR,,0.00,WeatherDisplay:10.37,2013-06-20 10:06:00,
2013-06-20 05:11:00,80.9,78.4,29.96,SSE,155,9.8,14.9,92,0.00,CLR,,0.00,WeatherDisplay:10.37,2013-06-20 10:11:00,
2013-06-20 05:16:00,80.9,78.0,29.96,South,176,12.3,16.3,91,0.00,CLR,,0.00,WeatherDisplay:10.37,2013-06-20 10:16:00,
2013-06-20 05:21:00,80.9,78.4,29.95,SSE,158,11.9,16.2,92,0.00,CLR,,0.00,WeatherDisplay:10.37,2013-06-20 10:21:00,
2013-06-20 05:26:00,80.9,78.4,29.96,SE,130,10.4,18.4,92,0.00,CLR,,0.00,WeatherDisplay:10.37,2013-06-20 10:26:00,
2013-06-20 05:31:00,81.0,78.5,29.96,South,169,10.4,15.0,92,0.00,CLR,,0.00,WeatherDisplay:10.37,2013-06-20 10:31:00,
2013-06-20 05:36:00,81.0,78.5,29.96,SSE,161,9.9,16.1,92,0.00,CLR,,0.00,WeatherDisplay:10.37,2013-06-20 10:36:00,
2013-06-20 05:41:00,80.9,78.4,29.96,SSE,148,11.1,17.3,92,0.00,CLR,,0.00,WeatherDisplay:10.37,2013-06-20 10:41:00,
2013-06-20 05:46:00,80.8,77.9,29.96,SSE,147,8.6,16.1,91,0.00,CLR,,0.00,WeatherDisplay:10.37,2013-06-20 10:46:00,
2013-06-20 05:51:00,80.9,77.7,29.96,SE,140,9.2,16.5,90,0.00,CLR,,0.00,WeatherDisplay:10.37,2013-06-20 10:51:00,
2013-06-20 05:56:00,81.0,77.4,29.96,SSE,151,11.2,17.3,89,0.00,CLR,,0.00,WeatherDisplay:10.37,2013-06-20 10:56:00,
2013-06-20 06:01:00,81.1,77.5,29.96,SSE,155,11.6,17.3,89,0.00,CLR,,0.00,WeatherDisplay:10.37,2013-06-20 11:01:00,
2013-06-20 06:06:00,81.1,77.5,29.96,SE,136,11.5,17.3,89,0.00,CLR,,0.00,WeatherDisplay:10.37,2013-06-20 11:06:00,
2013-06-20 06:11:00,81.1,77.5,29.97,SE,138,10.7,19.6,89,0.00,CLR,,0.00,WeatherDisplay:10.37,2013-06-20 11:11:00,
2013-06-20 06:16:00,81.3,78.1,29.97,SSE,155,8.6,15.0,90,0.00,CLR,,0.00,WeatherDisplay:10.37,2013-06-20 11:16:00,
2013-06-20 06:21:00,81.1,77.9,29.97,SE,141,10.0,17.3,90,0.00,CLR,,0.00,WeatherDisplay:10.37,2013-06-20 11:21:00,
2013-06-20 06:26:00,81.1,77.9,29.98,SSE,150,9.9,13.8,90,0.00,CLR,,0.00,WeatherDisplay:10.37,2013-06-20 11:26:00,
2013-06-20 06:31:00,81.1,77.9,29.98,SSE,157,8.1,12.9,90,0.00,CLR,,0.00,WeatherDisplay:10.37,2013-06-20 11:31:00,
2013-06-20 06:36:00,80.9,77.4,29.98,SE,140,8.2,13.8,89,0.00,CLR,,0.00,WeatherDisplay:10.37,2013-06-20 11:36:00,
2013-06-20 06:41:00,81.0,77.8,29.98,SE,145,7.7,12.7,90,0.00,CLR,,0.00,WeatherDisplay:10.37,2013-06-20 11:41:00,
2013-06-20 06:46:00,81.0,77.8,29.98,ESE,110,8.0,11.5,90,0.00,CLR,,0.00,WeatherDisplay:10.37,2013-06-20 11:46:00,
2013-06-20 06:51:00,81.1,77.9,29.99,SSE,148,5.4,12.7,90,0.00,CLR,,0.00,WeatherDisplay:10.37,2013-06-20 11:51:00,
2013-06-20 06:56:00,81.0,77.8,29.99,SE,137,7.9,11.5,90,0.00,CLR,,0.00,WeatherDisplay:10.37,2013-06-20 11:56:00,
2013-06-20 07:01:00,81.1,78.2,29.99,SE,144,7.5,11.6,91,0.00,CLR,,0.00,WeatherDisplay:10.37,2013-06-20 12:01:00,
2013-06-20 07:06:00,81.1,78.2,29.99,SSE,167,6.7,9.2,91,0.00,CLR,,0.00,WeatherDisplay:10.37,2013-06-20 12:06:00,
2013-06-20 07:11:00,81.1,78.2,29.99,South,176,6.3,8.1,91,0.00,CLR,,0.00,WeatherDisplay:10.37,2013-06-20 12:11:00,
2013-06-20 07:16:00,81.2,78.3,29.99,ESE,109,6.0,9.2,91,0.00,CLR,,0.00,WeatherDisplay:10.37,2013-06-20 12:16:00,
2013-06-20 07:21:00,81.1,78.2,30.00,SE,126,7.5,9.8,91,0.00,CLR,,0.00,WeatherDisplay:10.37,2013-06-20 12:21:00,
2013-06-20 07:26:00,81.2,78.3,30.00,SSE,161,5.1,8.1,91,0.00,CLR,,0.00,WeatherDisplay:10.37,2013-06-20 12:26:00,
2013-06-20 07:31:00,81.3,78.4,30.00,SE,134,6.4,9.2,91,0.00,CLR,,0.00,WeatherDisplay:10.37,2013-06-20 12:31:00,
2013-06-20 07:36:00,81.3,78.1,30.00,SE,133,7.6,10.4,90,0.00,CLR,,0.00,WeatherDisplay:10.37,2013-06-20 12:36:00,
2013-06-20 07:41:00,81.3,78.1,30.00,SSE,151,7.5,12.7,90,0.00,CLR,,0.00,WeatherDisplay:10.37,2013-06-20 12:41:00,
2013-06-20 07:46:00,81.3,78.1,30.00,SSE,168,7.2,12.7,90,0.00,CLR,,0.00,WeatherDisplay:10.37,2013-06-20 12:46:00,
2013-06-20 07:51:00,81.4,77.8,30.00,SE,131,7.3,11.5,89,0.00,CLR,,0.00,WeatherDisplay:10.37,2013-06-20 12:51:00,
2013-06-20 07:56:00,81.6,78.0,30.00,SE,130,7.9,10.8,89,0.00,CLR,,0.00,WeatherDisplay:10.37,2013-06-20 12:56:00,
2013-06-20 08:01:00,81.7,77.8,30.00,SE,138,6.8,12.7,88,0.00,CLR,,0.00,WeatherDisplay:10.37,2013-06-20 13:01:00,
2013-06-20 08:06:00,81.9,78.0,30.01,SSE,154,9.3,14.1,88,0.00,CLR,,0.00,WeatherDisplay:10.37,2013-06-20 13:06:00,
2013-06-20 08:11:00,82.0,78.1,30.01,SE,126,7.8,14.1,88,0.00,CLR,,0.00,WeatherDisplay:10.37,2013-06-20 13:11:00,
2013-06-20 08:16:00,82.2,77.9,30.02,SSE,148,6.9,13.2,87,0.00,CLR,,0.00,WeatherDisplay:10.37,2013-06-20 13:16:00,
2013-06-20 08:21:00,82.3,78.0,30.02,SE,143,9.1,13.1,87,0.00,CLR,,0.00,WeatherDisplay:10.37,2013-06-20 13:21:00,
2013-06-20 08:26:00,82.4,77.8,30.02,SSE,152,8.5,12.3,86,0.00,CLR,,0.00,WeatherDisplay:10.37,2013-06-20 13:26:00,
2013-06-20 08:31:00,82.4,77.8,30.02,South,174,7.6,9.3,86,0.00,CLR,,0.00,WeatherDisplay:10.37,2013-06-20 13:31:00,
2013-06-20 08:36:00,82.5,77.9,30.02,SE,140,8.5,12.0,86,0.00,CLR,,0.00,WeatherDisplay:10.37,2013-06-20 13:36:00,
2013-06-20 08:41:00,82.5,77.5,30.02,SE,138,8.2,14.0,85,0.00,CLR,,0.00,WeatherDisplay:10.37,2013-06-20 13:41:00,
2013-06-20 08:46:00,82.8,77.8,30.02,SE,136,10.3,13.1,85,0.00,CLR,,0.00,WeatherDisplay:10.37,2013-06-20 13:46:00,
2013-06-20 08:52:00,82.9,77.6,30.02,SSE,148,10.0,15.0,84,0.00,CLR,,0.00,WeatherDisplay:10.37,2013-06-20 13:52:00,
2013-06-20 08:57:00,82.8,77.5,30.03,SSE,155,10.1,15.4,84,0.00,CLR,,0.00,WeatherDisplay:10.37,2013-06-20 13:57:00,
2013-06-20 09:02:00,83.0,77.7,30.03,ESE,117,10.3,15.1,84,0.00,CLR,,0.00,WeatherDisplay:10.37,2013-06-20 14:02:00,
2013-06-20 09:07:00,82.9,77.6,30.03,SSE,154,11.1,16.1,84,0.00,CLR,,0.00,WeatherDisplay:10.37,2013-06-20 14:07:00,
2013-06-20 09:12:00,83.0,77.3,30.03,ESE,117,11.5,19.6,83,0.00,CLR,,0.00,WeatherDisplay:10.37,2013-06-20 14:12:00,
2013-06-20 09:17:00,83.3,78.0,30.03,SE,130,10.1,15.4,84,0.00,CLR,,0.00,WeatherDisplay:10.37,2013-06-20 14:17:00,
2013-06-20 09:22:00,83.2,77.1,30.03,SE,128,12.7,18.4,82,0.00,CLR,,0.00,WeatherDisplay:10.37,2013-06-20 14:22:00,
2013-06-20 09:27:00,83.4,77.3,30.03,SSE,147,10.2,16.4,82,0.00,CLR,,0.00,WeatherDisplay:10.37,2013-06-20 14:27:00,
2013-06-20 09:32:00,83.5,76.7,30.03,ESE,121,11.8,17.3,80,0.00,CLR,,0.00,WeatherDisplay:10.37,2013-06-20 14:32:00,
2013-06-20 09:37:00,83.8,76.6,30.03,SE,130,11.1,15.2,79,0.00,CLR,,0.00,WeatherDisplay:10.37,2013-06-20 14:37:00,
2013-06-20 09:42:00,83.7,76.1,30.04,SE,128,10.7,16.1,78,0.00,CLR,,0.00,WeatherDisplay:10.37,2013-06-20 14:42:00,
2013-06-20 09:47:00,83.9,76.3,30.04,SSE,160,11.6,16.1,78,0.00,CLR,,0.00,WeatherDisplay:10.37,2013-06-20 14:47:00,
2013-06-20 09:52:00,84.1,76.5,30.04,SSE,164,11.2,18.4,78,0.00,CLR,,0.00,WeatherDisplay:10.37,2013-06-20 14:52:00,
2013-06-20 09:57:00,84.2,76.2,30.04,SE,137,11.3,17.3,77,0.00,CLR,,0.00,WeatherDisplay:10.37,2013-06-20 14:57:00,
2013-06-20 10:02:00,84.4,76.8,30.04,SSE,164,10.6,19.6,78,0.00,CLR,,0.00,WeatherDisplay:10.37,2013-06-20 15:02:00,
2013-06-20 10:07:00,84.4,76.4,30.04,SE,134,9.4,16.1,77,0.00,CLR,,0.00,WeatherDisplay:10.37,2013-06-20 15:07:00,
2013-06-20 10:12:00,84.6,76.6,30.04,SSE,157,10.7,14.0,77,0.00,CLR,,0.00,WeatherDisplay:10.37,2013-06-20 15:12:00,
2013-06-20 10:17:00,84.7,76.3,30.04,SE,134,10.0,16.1,76,0.00,CLR,,0.00,WeatherDisplay:10.37,2013-06-20 15:17:00,
2013-06-20 10:22:00,84.7,76.3,30.05,SE,141,11.2,13.8,76,0.00,CLR,,0.00,WeatherDisplay:10.37,2013-06-20 15:22:00,
2013-06-20 10:27:00,85.0,76.2,30.05,SSE,158,8.9,13.4,75,0.00,CLR,,0.00,WeatherDisplay:10.37,2013-06-20 15:27:00,
2013-06-20 10:32:00,85.1,76.3,30.05,SSE,160,8.8,12.7,75,0.00,CLR,,0.00,WeatherDisplay:10.37,2013-06-20 15:32:00,
2013-06-20 10:37:00,85.0,75.8,30.05,SSE,158,9.7,15.0,74,0.00,CLR,,0.00,WeatherDisplay:10.37,2013-06-20 15:37:00,
2013-06-20 10:42:00,85.1,75.5,30.05,SE,145,8.8,17.3,73,0.00,CLR,,0.00,WeatherDisplay:10.37,2013-06-20 15:42:00,
2013-06-20 10:48:00,85.2,75.1,30.05,SSE,162,11.8,17.3,72,0.00,CLR,,0.00,WeatherDisplay:10.37,2013-06-20 15:48:00,
2013-06-20 10:53:00,85.2,75.6,30.05,SSE,147,7.9,13.8,73,0.00,CLR,,0.00,WeatherDisplay:10.37,2013-06-20 15:53:00,
2013-06-20 10:58:00,85.2,74.7,30.05,SSE,158,9.8,18.4,71,0.00,CLR,,0.00,WeatherDisplay:10.37,2013-06-20 15:58:00,
2013-06-20 11:03:00,85.3,75.2,30.05,SE,134,10.7,14.2,72,0.00,CLR,,0.00,WeatherDisplay:10.37,2013-06-20 16:03:00,
2013-06-20 11:08:00,85.3,75.2,30.05,SE,130,11.0,15.4,72,0.00,CLR,,0.00,WeatherDisplay:10.37,2013-06-20 16:08:00,
2013-06-20 11:13:00,85.5,75.0,30.05,ESE,116,11.8,15.0,71,0.00,CLR,,0.00,WeatherDisplay:10.37,2013-06-20 16:13:00,
2013-06-20 11:18:00,85.4,74.9,30.05,SE,134,9.7,16.1,71,0.00,CLR,,0.00,WeatherDisplay:10.37,2013-06-20 16:18:00,
2013-06-20 11:23:00,85.4,75.3,30.05,SSE,151,8.8,16.1,72,0.00,CLR,,0.00,WeatherDisplay:10.37,2013-06-20 16:23:00,
2013-06-20 11:28:00,85.5,75.9,30.05,SE,124,9.0,13.8,73,0.00,CLR,,0.00,WeatherDisplay:10.37,2013-06-20 16:28:00,
2013-06-20 11:33:00,85.6,75.9,30.05,SE,128,7.7,13.8,73,0.00,CLR,,0.00,WeatherDisplay:10.37,2013-06-20 16:33:00,
2013-06-20 11:38:00,85.9,76.2,30.05,SE,124,8.6,14.3,73,0.00,CLR,,0.00,WeatherDisplay:10.37,2013-06-20 16:38:00,
2013-06-20 11:43:00,85.9,75.4,30.05,SE,138,8.5,13.8,71,0.00,CLR,,0.00,WeatherDisplay:10.37,2013-06-20 16:43:00,
2013-06-20 11:48:00,86.3,76.2,30.05,SSE,150,7.7,13.8,72,0.00,CLR,,0.00,WeatherDisplay:10.37,2013-06-20 16:48:00,
2013-06-20 11:53:00,86.2,75.7,30.05,ESE,112,8.4,18.7,71,0.00,CLR,,0.00,WeatherDisplay:10.37,2013-06-20 16:53:00,
2013-06-20 11:58:00,86.3,75.4,30.05,ESE,102,10.1,15.0,70,0.00,CLR,,0.00,WeatherDisplay:10.37,2013-06-20 16:58:00,
2013-06-20 12:03:00,86.5,75.1,30.05,SE,133,10.3,15.0,69,0.00,CLR,,0.00,WeatherDisplay:10.37,2013-06-20 17:03:00,
2013-06-20 12:08:00,86.6,75.2,30.05,SSE,148,9.5,13.8,69,0.00,CLR,,0.00,WeatherDisplay:10.37,2013-06-20 17:08:00,
2013-06-20 12:13:00,86.7,75.3,30.05,SE,126,9.5,15.0,69,0.00,CLR,,0.00,WeatherDisplay:10.37,2013-06-20 17:13:00,
2013-06-20 12:18:00,86.7,75.3,30.05,SSE,155,9.0,12.7,69,0.00,CLR,,0.00,WeatherDisplay:10.37,2013-06-20 17:18:00,
2013-06-20 12:23:00,86.6,75.2,30.05,ESE,119,8.7,15.0,69,0.00,CLR,,0.00,WeatherDisplay:10.37,2013-06-20 17:23:00,
2013-06-20 12:28:00,86.7,75.3,30.05,SE,141,8.4,14.4,69,0.00,CLR,,0.00,WeatherDisplay:10.37,2013-06-20 17:28:00,
2013-06-20 12:33:00,87.2,75.3,30.05,ESE,120,8.5,13.8,68,0.00,CLR,,0.00,WeatherDisplay:10.37,2013-06-20 17:33:00,
2013-06-20 12:38:00,87.2,74.9,30.05,ESE,123,10.7,14.2,67,0.00,CLR,,0.00,WeatherDisplay:10.37,2013-06-20 17:38:00,
2013-06-20 12:43:00,87.4,75.1,30.05,ESE,107,8.7,15.0,67,0.00,CLR,,0.00,WeatherDisplay:10.37,2013-06-20 17:43:00,
2013-06-20 12:48:00,87.5,75.2,30.04,SSE,161,8.3,15.0,67,0.00,CLR,,0.00,WeatherDisplay:10.37,2013-06-20 17:48:00,
2013-06-20 12:53:00,87.4,75.1,30.05,SSE,147,8.6,15.0,67,0.00,CLR,,0.00,WeatherDisplay:10.37,2013-06-20 17:53:00,
2013-06-20 12:58:00,87.6,75.3,30.04,SE,130,10.7,14.2,67,0.00,CLR,,0.00,WeatherDisplay:10.37,2013-06-20 17:58:00,
2013-06-20 13:03:00,87.8,74.6,30.04,ESE,104,10.5,16.0,65,0.00,CLR,,0.00,WeatherDisplay:10.37,2013-06-20 18:03:00,
2013-06-20 13:08:00,87.7,74.5,30.04,East,96,8.3,16.1,65,0.00,CLR,,0.00,WeatherDisplay:10.37,2013-06-20 18:08:00,
2013-06-20 13:13:00,88.0,74.8,30.04,South,176,8.2,13.8,65,0.00,CLR,,0.00,WeatherDisplay:10.37,2013-06-20 18:13:00,
2013-06-20 13:18:00,88.0,74.3,30.04,ESE,109,10.2,16.7,64,0.00,CLR,,0.00,WeatherDisplay:10.37,2013-06-20 18:18:00,
2013-06-20 13:23:00,88.1,74.8,30.04,SSE,161,11.4,16.1,65,0.00,CLR,,0.00,WeatherDisplay:10.37,2013-06-20 18:23:00,
2013-06-20 13:28:00,87.9,74.7,30.03,SE,133,10.8,16.1,65,0.00,CLR,,0.00,WeatherDisplay:10.37,2013-06-20 18:28:00,
2013-06-20 13:33:00,88.0,74.8,30.03,SE,136,10.6,15.0,65,0.00,CLR,,0.00,WeatherDisplay:10.37,2013-06-20 18:33:00,
2013-06-20 13:39:00,88.3,75.0,30.03,ESE,116,8.2,15.0,65,0.00,CLR,,0.00,WeatherDisplay:10.37,2013-06-20 18:39:00,
2013-06-20 13:44:00,88.5,74.8,30.03,ESE,114,9.0,13.1,64,0.00,CLR,,0.00,WeatherDisplay:10.37,2013-06-20 18:44:00,
2013-06-20 13:49:00,88.5,74.3,30.03,SSE,154,9.3,16.1,63,0.00,CLR,,0.00,WeatherDisplay:10.37,2013-06-20 18:49:00,
2013-06-20 13:54:00,88.6,75.3,30.03,South,171,8.8,12.9,65,0.00,CLR,,0.00,WeatherDisplay:10.37,2013-06-20 18:54:00,
2013-06-20 13:59:00,88.6,74.9,30.03,ESE,104,12.1,17.6,64,0.00,CLR,,0.00,WeatherDisplay:10.37,2013-06-20 18:59:00,
2013-06-20 14:04:00,88.5,75.2,30.03,SE,145,11.4,16.3,65,0.00,CLR,,0.00,WeatherDisplay:10.37,2013-06-20 19:04:00,
2013-06-20 14:09:00,88.5,75.2,30.03,East,82,9.1,17.7,65,0.00,CLR,,0.00,WeatherDisplay:10.37,2013-06-20 19:09:00,
2013-06-20 14:14:00,88.6,74.9,30.03,East,100,8.6,17.3,64,0.00,CLR,,0.00,WeatherDisplay:10.37,2013-06-20 19:14:00,
2013-06-20 14:19:00,88.6,75.3,30.02,East,89,6.7,17.5,65,0.00,CLR,,0.00,WeatherDisplay:10.37,2013-06-20 19:19:00,
2013-06-20 14:24:00,88.3,74.1,30.02,ESE,109,13.9,20.2,63,0.00,CLR,,0.00,WeatherDisplay:10.37,2013-06-20 19:24:00,
2013-06-20 14:29:00,88.5,74.3,30.02,ESE,109,10.2,19.6,63,0.00,CLR,,0.00,WeatherDisplay:10.37,2013-06-20 19:29:00,
2013-06-20 14:34:00,88.5,74.8,30.02,SE,137,10.0,16.1,64,0.00,CLR,,0.00,WeatherDisplay:10.37,2013-06-20 19:34:00,
2013-06-20 14:39:00,88.5,74.8,30.02,ESE,110,8.0,17.3,64,0.00,CLR,,0.00,WeatherDisplay:10.37,2013-06-20 19:39:00,
2013-06-20 14:44:00,88.3,75.0,30.02,East,89,10.3,15.7,65,0.00,CLR,,0.00,WeatherDisplay:10.37,2013-06-20 19:44:00,
2013-06-20 14:49:00,88.3,75.5,30.02,ESE,114,9.8,17.3,66,0.00,CLR,,0.00,WeatherDisplay:10.37,2013-06-20 19:49:00,
2013-06-20 14:54:00,88.4,75.1,30.02,East,86,6.7,15.0,65,0.00,CLR,,0.00,WeatherDisplay:10.37,2013-06-20 19:54:00,
2013-06-20 14:59:00,88.4,75.1,30.01,East,96,9.3,17.3,65,0.00,CLR,,0.00,WeatherDisplay:10.37,2013-06-20 19:59:00,
2013-06-20 15:04:00,88.6,75.8,30.01,ESE,116,8.9,16.1,66,0.00,CLR,,0.00,WeatherDisplay:10.37,2013-06-20 20:04:00,
2013-06-20 15:09:00,88.8,75.0,30.01,SE,145,9.3,14.0,64,0.00,CLR,,0.00,WeatherDisplay:10.37,2013-06-20 20:09:00,
2013-06-20 15:14:00,88.8,75.5,30.01,ESE,113,13.5,18.8,65,0.00,CLR,,0.00,WeatherDisplay:10.37,2013-06-20 20:14:00,
2013-06-20 15:19:00,88.6,75.3,30.01,ESE,103,11.8,19.6,65,0.00,CLR,,0.00,WeatherDisplay:10.37,2013-06-20 20:19:00,
2013-06-20 15:24:00,88.5,75.2,30.01,SE,144,8.5,18.4,65,0.00,CLR,,0.00,WeatherDisplay:10.37,2013-06-20 20:24:00,
2013-06-20 15:29:00,88.5,75.2,30.01,SE,137,9.1,16.1,65,0.00,CLR,,0.00,WeatherDisplay:10.37,2013-06-20 20:29:00,
2013-06-20 15:34:00,88.2,75.4,30.01,ESE,112,11.7,19.6,66,0.00,CLR,,0.00,WeatherDisplay:10.37,2013-06-20 20:34:00,
2013-06-20 15:39:00,88.1,74.8,30.01,ESE,113,10.2,17.3,65,0.00,CLR,,0.00,WeatherDisplay:10.37,2013-06-20 20:39:00,
2013-06-20 15:44:00,88.6,74.9,30.00,East,93,10.0,19.6,64,0.00,CLR,,0.00,WeatherDisplay:10.37,2013-06-20 20:44:00,
2013-06-20 15:49:00,89.1,75.3,30.00,East,97,9.5,13.8,64,0.00,CLR,,0.00,WeatherDisplay:10.37,2013-06-20 20:49:00,
2013-06-20 15:54:00,88.6,75.3,30.00,East,93,10.2,16.1,65,0.00,CLR,,0.00,WeatherDisplay:10.37,2013-06-20 20:54:00,
2013-06-20 15:59:00,88.5,75.2,30.00,East,99,10.1,19.6,65,0.00,CLR,,0.00,WeatherDisplay:10.37,2013-06-20 20:59:00,
2013-06-20 16:04:00,88.5,76.1,30.00,ESE,112,10.5,16.1,67,0.00,CLR,,0.00,WeatherDisplay:10.37,2013-06-20 21:04:00,
2013-06-20 16:09:00,88.5,76.1,30.00,ESE,103,10.5,17.3,67,0.00,CLR,,0.00,WeatherDisplay:10.37,2013-06-20 21:09:00,
2013-06-20 16:14:00,88.9,76.1,30.00,SE,128,9.9,15.0,66,0.00,CLR,,0.00,WeatherDisplay:10.37,2013-06-20 21:14:00,
2013-06-20 16:19:00,88.7,75.0,30.00,SE,126,11.1,19.6,64,0.00,CLR,,0.00,WeatherDisplay:10.37,2013-06-20 21:19:00,
2013-06-20 16:24:00,88.5,76.1,29.99,East,97,8.9,16.1,67,0.00,CLR,,0.00,WeatherDisplay:10.37,2013-06-20 21:24:00,
2013-06-20 16:29:00,88.8,76.4,29.99,ESE,120,11.1,16.1,67,0.00,CLR,,0.00,WeatherDisplay:10.37,2013-06-20 21:29:00,
2013-06-20 16:34:00,89.0,76.6,29.99,East,89,9.1,16.1,67,0.00,CLR,,0.00,WeatherDisplay:10.37,2013-06-20 21:34:00,
2013-06-20 16:39:00,88.8,76.4,29.99,East,95,10.3,19.6,67,0.00,CLR,,0.00,WeatherDisplay:10.37,2013-06-20 21:39:00,
2013-06-20 16:44:00,88.7,76.8,29.99,ESE,121,10.2,19.6,68,0.00,CLR,,0.00,WeatherDisplay:10.37,2013-06-20 21:44:00,
2013-06-20 16:49:00,89.0,76.6,29.99,ENE,68,14.4,22.1,67,0.00,CLR,,0.00,WeatherDisplay:10.37,2013-06-20 21:49:00,
2013-06-20 16:54:00,89.3,76.9,29.99,East,95,8.9,17.3,67,0.00,CLR,,0.00,WeatherDisplay:10.37,2013-06-20 21:54:00,
2013-06-20 16:59:00,89.0,76.6,29.99,ENE,78,14.2,21.4,67,0.00,CLR,,0.00,WeatherDisplay:10.37,2013-06-20 21:59:00,
2013-06-20 17:04:00,89.2,76.4,29.99,East,89,10.6,18.4,66,0.00,CLR,,0.00,WeatherDisplay:10.37,2013-06-20 22:04:00,
2013-06-20 17:09:00,89.0,76.2,29.99,ENE,59,9.3,21.9,66,0.00,CLR,,0.00,WeatherDisplay:10.37,2013-06-20 22:09:00,
2013-06-20 17:14:00,88.8,76.4,29.99,SE,133,9.6,18.8,67,0.00,CLR,,0.00,WeatherDisplay:10.37,2013-06-20 22:14:00,
2013-06-20 17:19:00,88.5,77.0,29.99,ESE,103,9.0,20.7,69,0.00,CLR,,0.00,WeatherDisplay:10.37,2013-06-20 22:19:00,
2013-06-20 17:24:00,87.9,76.9,29.99,SSE,154,10.2,13.8,70,0.00,CLR,,0.00,WeatherDisplay:10.37,2013-06-20 22:24:00,
2013-06-20 17:29:00,87.9,76.9,29.99,ESE,113,12.0,19.6,70,0.00,CLR,,0.00,WeatherDisplay:10.37,2013-06-20 22:29:00,
2013-06-20 17:34:00,87.7,76.7,29.99,ESE,123,8.5,19.6,70,0.00,CLR,,0.00,WeatherDisplay:10.37,2013-06-20 22:34:00,
2013-06-20 17:39:00,87.5,76.9,29.99,SE,143,8.9,18.4,71,0.00,CLR,,0.00,WeatherDisplay:10.37,2013-06-20 22:39:00,
2013-06-20 17:44:00,87.4,76.4,29.99,East,93,12.6,19.3,70,0.00,CLR,,0.00,WeatherDisplay:10.37,2013-06-20 22:44:00,
2013-06-20 17:49:00,87.3,77.2,29.99,East,93,14.0,23.0,72,0.00,CLR,,0.00,WeatherDisplay:10.37,2013-06-20 22:49:00,
2013-06-20 17:54:00,87.6,77.0,29.99,East,90,16.2,24.1,71,0.00,CLR,,0.00,WeatherDisplay:10.37,2013-06-20 22:54:00,
2013-06-20 17:59:00,88.0,76.5,29.99,ENE,76,12.6,24.2,69,0.00,CLR,,0.00,WeatherDisplay:10.37,2013-06-20 22:59:00,
2013-06-20 18:04:00,88.0,76.5,29.99,East,79,15.0,21.9,69,0.00,CLR,,0.00,WeatherDisplay:10.37,2013-06-20 23:04:00,
2013-06-20 18:09:00,87.9,76.5,29.99,East,82,11.7,21.9,69,0.00,CLR,,0.00,WeatherDisplay:10.37,2013-06-20 23:09:00,
2013-06-20 18:14:00,87.7,76.7,29.99,East,83,11.8,22.3,70,0.00,CLR,,0.00,WeatherDisplay:10.37,2013-06-20 23:14:00,
2013-06-20 18:19:00,87.4,76.8,29.99,East,95,9.2,19.6,71,0.00,CLR,,0.00,WeatherDisplay:10.37,2013-06-20 23:19:00,
2013-06-20 18:24:00,87.4,77.3,29.99,East,82,11.8,18.7,72,0.00,CLR,,0.00,WeatherDisplay:10.37,2013-06-20 23:24:00,
2013-06-20 18:29:00,87.3,77.2,29.99,ENE,58,9.3,19.6,72,0.00,CLR,,0.00,WeatherDisplay:10.37,2013-06-20 23:29:00,
2013-06-20 18:34:00,87.0,77.3,29.99,ESE,102,9.9,19.6,73,0.00,CLR,,0.00,WeatherDisplay:10.37,2013-06-20 23:34:00,
2013-06-20 18:39:00,86.6,77.3,29.99,ESE,117,11.6,17.2,74,0.00,CLR,,0.00,WeatherDisplay:10.37,2013-06-20 23:39:00,
2013-06-20 18:44:00,86.1,77.2,29.99,East,99,12.4,19.6,75,0.00,CLR,,0.00,WeatherDisplay:10.37,2013-06-20 23:44:00,
2013-06-20 18:49:00,85.8,77.0,29.99,SE,131,12.0,20.2,75,0.00,CLR,,0.00,WeatherDisplay:10.37,2013-06-20 23:49:00,
2013-06-20 18:54:00,85.7,77.3,29.99,ESE,116,10.6,17.3,76,0.00,CLR,,0.00,WeatherDisplay:10.37,2013-06-20 23:54:00,
2013-06-20 18:59:00,85.7,77.7,29.99,ESE,103,10.5,15.4,77,0.00,CLR,,0.00,WeatherDisplay:10.37,2013-06-20 23:59:00,
2013-06-20 19:04:00,85.5,77.5,29.99,ESE,110,11.4,17.3,77,0.00,CLR,,0.00,WeatherDisplay:10.37,2013-06-21 00:04:00,
2013-06-20 19:09:00,85.3,77.7,29.99,East,95,8.5,17.3,78,0.00,CLR,,0.00,WeatherDisplay:10.37,2013-06-21 00:09:00,
2013-06-20 19:14:00,85.2,77.6,29.99,East,79,8.3,16.1,78,0.00,CLR,,0.00,WeatherDisplay:10.37,2013-06-21 00:14:00,
2013-06-20 19:19:00,85.2,77.6,29.99,East,88,12.6,20.7,78,0.00,CLR,,0.00,WeatherDisplay:10.37,2013-06-21 00:19:00,
2013-06-20 19:24:00,85.1,77.8,29.99,East,90,7.5,15.0,79,0.00,CLR,,0.00,WeatherDisplay:10.37,2013-06-21 00:24:00,
2013-06-20 19:29:00,85.0,77.4,29.99,ESE,113,14.4,20.7,78,0.00,CLR,,0.00,WeatherDisplay:10.37,2013-06-21 00:29:00,
2013-06-20 19:34:00,84.8,77.6,29.99,ESE,106,7.8,19.6,79,0.00,CLR,,0.00,WeatherDisplay:10.37,2013-06-21 00:34:00,
2013-06-20 19:39:00,84.7,77.5,29.99,East,93,11.9,19.6,79,0.00,CLR,,0.00,WeatherDisplay:10.37,2013-06-21 00:39:00,
2013-06-20 19:44:00,84.6,77.7,29.99,ESE,120,10.8,16.7,80,0.00,CLR,,0.00,WeatherDisplay:10.37,2013-06-21 00:44:00,
2013-06-20 19:49:00,84.5,77.6,29.99,SE,124,12.3,18.4,80,0.00,CLR,,0.00,WeatherDisplay:10.37,2013-06-21 00:49:00,
2013-06-20 19:54:00,84.3,77.8,29.99,East,97,11.3,20.1,81,0.00,CLR,,0.00,WeatherDisplay:10.37,2013-06-21 00:54:00,
2013-06-20 19:59:00,84.3,78.2,29.99,ESE,116,11.9,20.1,82,0.00,CLR,,0.00,WeatherDisplay:10.37,2013-06-21 00:59:00,
2013-06-20 20:04:00,84.1,78.0,29.99,ESE,109,11.5,18.4,82,0.00,CLR,,0.00,WeatherDisplay:10.37,2013-06-21 01:04:00,
2013-06-20 20:09:00,84.1,78.0,29.99,ESE,119,10.3,17.3,82,0.00,CLR,,0.00,WeatherDisplay:10.37,2013-06-21 01:09:00,
2013-06-20 20:14:00,83.8,77.7,29.99,ESE,104,8.9,18.4,82,0.00,CLR,,0.00,WeatherDisplay:10.37,2013-06-21 01:14:00,
2013-06-20 20:19:00,83.7,78.3,29.99,ESE,123,9.8,18.4,84,0.00,CLR,,0.00,WeatherDisplay:10.37,2013-06-21 01:19:00,
2013-06-20 20:24:00,83.5,78.2,29.99,ESE,112,11.2,17.3,84,0.00,CLR,,0.00,WeatherDisplay:10.37,2013-06-21 01:24:00,
2013-06-20 20:29:00,83.4,78.1,29.99,ESE,104,12.8,20.7,84,0.00,CLR,,0.00,WeatherDisplay:10.37,2013-06-21 01:29:00,
2013-06-20 20:34:00,83.4,78.1,29.99,ESE,103,11.8,18.4,84,0.00,CLR,,0.00,WeatherDisplay:10.37,2013-06-21 01:34:00,
2013-06-20 20:39:00,83.4,78.1,29.99,SE,136,12.2,16.1,84,0.00,CLR,,0.00,WeatherDisplay:10.37,2013-06-21 01:39:00,
2013-06-20 20:44:00,83.3,78.0,29.99,ESE,102,9.9,20.7,84,0.00,CLR,,0.00,WeatherDisplay:10.37,2013-06-21 01:44:00,
2013-06-20 20:49:00,83.3,78.0,29.99,ESE,121,9.3,15.0,84,0.00,CLR,,0.00,WeatherDisplay:10.37,2013-06-21 01:49:00,
2013-06-20 20:54:00,83.3,78.3,29.99,SE,130,10.3,15.3,85,0.00,CLR,,0.00,WeatherDisplay:10.37,2013-06-21 01:54:00,
2013-06-20 20:59:00,83.2,78.2,30.00,SE,138,8.8,16.1,85,0.00,CLR,,0.00,WeatherDisplay:10.37,2013-06-21 01:59:00,
2013-06-20 21:04:00,83.1,78.1,30.00,SE,128,12.1,15.0,85,0.00,CLR,,0.00,WeatherDisplay:10.37,2013-06-21 02:04:00,
2013-06-20 21:09:00,83.0,78.4,30.00,ESE,119,10.5,16.1,86,0.00,CLR,,0.00,WeatherDisplay:10.37,2013-06-21 02:09:00,
2013-06-20 21:14:00,82.9,78.3,30.00,East,96,11.4,16.1,86,0.00,CLR,,0.00,WeatherDisplay:10.37,2013-06-21 02:14:00,
2013-06-20 21:19:00,82.9,78.3,30.00,ESE,110,9.6,16.1,86,0.00,CLR,,0.00,WeatherDisplay:10.37,2013-06-21 02:19:00,
2013-06-20 21:24:00,82.7,78.1,30.00,SSE,155,9.9,17.3,86,0.00,CLR,,0.00,WeatherDisplay:10.37,2013-06-21 02:24:00,
2013-06-20 21:29:00,82.7,78.4,30.00,ESE,110,8.5,17.3,87,0.00,CLR,,0.00,WeatherDisplay:10.37,2013-06-21 02:29:00,
2013-06-20 21:34:00,82.6,78.3,30.00,East,83,11.0,16.5,87,0.00,CLR,,0.00,WeatherDisplay:10.37,2013-06-21 02:34:00,
2013-06-20 21:39:00,82.6,78.3,30.00,ESE,113,11.1,15.4,87,0.00,CLR,,0.00,WeatherDisplay:10.37,2013-06-21 02:39:00,
2013-06-20 21:44:00,82.6,78.3,30.00,SE,137,8.4,17.3,87,0.00,CLR,,0.00,WeatherDisplay:10.37,2013-06-21 02:44:00,
2013-06-20 21:49:00,82.5,78.2,30.00,SE,126,10.4,17.1,87,0.00,CLR,,0.00,WeatherDisplay:10.37,2013-06-21 02:49:00,
2013-06-20 21:54:00,82.5,78.2,30.00,ESE,112,10.1,17.3,87,0.00,CLR,,0.00,WeatherDisplay:10.37,2013-06-21 02:54:00,
2013-06-20 21:59:00,82.5,78.2,30.00,ESE,112,9.4,14.8,87,0.00,CLR,,0.00,WeatherDisplay:10.37,2013-06-21 02:59:00,
2013-06-20 22:04:00,82.5,78.2,30.00,East,83,9.8,16.1,87,0.00,CLR,,0.00,WeatherDisplay:10.37,2013-06-21 03:04:00,
2013-06-20 22:09:00,82.5,78.6,30.00,ESE,116,11.0,18.4,88,0.00,CLR,,0.00,WeatherDisplay:10.37,2013-06-21 03:09:00,
2013-06-20 22:14:00,82.4,78.5,30.01,SSE,158,11.2,17.3,88,0.00,CLR,,0.00,WeatherDisplay:10.37,2013-06-21 03:14:00,
2013-06-20 22:19:00,82.4,78.5,30.01,ESE,116,7.8,14.2,88,0.00,CLR,,0.00,WeatherDisplay:10.37,2013-06-21 03:19:00,
2013-06-20 22:24:00,82.4,78.5,30.01,SE,144,11.2,16.1,88,0.00,CLR,,0.00,WeatherDisplay:10.37,2013-06-21 03:24:00,
2013-06-20 22:29:00,82.4,78.5,30.01,ESE,123,11.6,18.4,88,0.00,CLR,,0.00,WeatherDisplay:10.37,2013-06-21 03:29:00,
2013-06-20 22:34:00,82.4,78.5,30.01,ESE,110,13.0,20.1,88,0.00,CLR,,0.00,WeatherDisplay:10.37,2013-06-21 03:34:00,
2013-06-20 22:39:00,82.3,78.4,30.01,ESE,103,10.5,20.1,88,0.00,CLR,,0.00,WeatherDisplay:10.37,2013-06-21 03:39:00,
2013-06-20 22:44:00,82.4,78.5,30.01,East,97,12.5,20.7,88,0.00,CLR,,0.00,WeatherDisplay:10.37,2013-06-21 03:44:00,
2013-06-20 22:49:00,82.3,78.4,30.02,East,93,9.9,15.0,88,0.00,CLR,,0.00,WeatherDisplay:10.37,2013-06-21 03:49:00,
2013-06-20 22:54:00,82.4,78.5,30.02,ESE,119,9.5,16.5,88,0.00,CLR,,0.00,WeatherDisplay:10.37,2013-06-21 03:54:00,
2013-06-20 22:59:00,82.4,78.5,30.02,ESE,107,8.9,13.8,88,0.00,CLR,,0.00,WeatherDisplay:10.37,2013-06-21 03:59:00,
2013-06-20 23:01:00,82.2,78.3,30.02,East,92,7.2,13.8,88,0.00,CLR,,0.00,WeatherDisplay:10.37,2013-06-21 04:01:00,
2013-06-20 23:02:00,82.3,78.4,30.02,East,100,8.9,12.7,88,0.00,CLR,,0.00,WeatherDisplay:10.37,2013-06-21 04:02:00,
2013-06-20 23:03:00,82.3,78.4,30.02,SSE,151,9.0,12.7,88,0.00,CLR,,0.00,WeatherDisplay:10.37,2013-06-21 04:03:00,
2013-06-20 23:07:00,82.2,78.3,30.02,ESE,102,10.3,16.1,88,0.00,CLR,,0.00,WeatherDisplay:10.37,2013-06-21 04:07:00,
2013-06-20 23:12:00,82.3,78.4,30.02,ESE,104,8.5,16.1,88,0.00,CLR,,0.00,WeatherDisplay:10.37,2013-06-21 04:12:00,
2013-06-20 23:17:00,82.4,78.8,30.02,ESE,110,11.8,16.5,89,0.00,,,0.00,WeatherDisplay:10.37,2013-06-21 04:17:00,
2013-06-20 23:22:00,82.3,78.4,30.02,SE,124,9.9,16.3,88,0.00,,,0.00,WeatherDisplay:10.37,2013-06-21 04:22:00,
2013-06-20 23:27:00,82.2,78.3,30.02,SSE,152,9.5,17.7,88,0.00,,,0.00,WeatherDisplay:10.37,2013-06-21 04:27:00,
2013-06-20 23:32:00,82.0,78.1,30.03,ESE,119,11.1,17.2,88,0.00,CLR,,0.00,WeatherDisplay:10.37,2013-06-21 04:32:00,
2013-06-20 23:37:00,81.9,78.0,30.03,ESE,107,7.1,15.0,88,0.00,CLR,,0.00,WeatherDisplay:10.37,2013-06-21 04:37:00,
2013-06-20 23:42:00,82.1,78.2,30.03,SE,144,8.0,16.1,88,0.00,CLR,,0.00,WeatherDisplay:10.37,2013-06-21 04:42:00,
2013-06-20 23:47:00,82.0,78.1,30.03,ESE,114,10.0,15.4,88,0.00,CLR,,0.00,WeatherDisplay:10.37,2013-06-21 04:47:00,
2013-06-20 23:52:00,82.0,78.1,30.03,SE,127,7.9,11.5,88,0.00,CLR,,0.00,WeatherDisplay:10.37,2013-06-21 04:52:00,
2013-06-20 23:57:00,82.0,78.1,30.03,ESE,120,8.9,16.1,88,0.00,CLR,,0.00,WeatherDisplay:10.37,2013-06-21 04:57:00,